Precipitable_Water
1.37 1.39 1.39 1.38 1.35 1.29 1.19 1.05 0.88 0.74 0.81 0.97 0.97 1.06 1.07 1.05 1.08 1.13 1.18 1.21 1.20 1.17 1.11 1.11 1.11 1.09 1.08 1.06 1.04 1.04 1.03 0.99 0.95 0.89 0.85 0.81 0.78 0.73
1.40 1.40 1.41 1.40 1.37 1.34 1.25 1.16 1.06 0.87 0.80 0.98 0.99 1.03 1.06 1.10 1.11 1.13 1.15 1.13 1.12 1.07 1.06 1.07 1.06 1.05 1.04 1.02 0.99 0.96 0.94 0.90 0.83 0.78 0.74 0.69 0.65 0.65
1.38 1.38 1.38 1.41 1.35 1.36 1.33 1.25 1.14 1.04 0.90 0.95 1.06 1.08 1.09 1.11 1.13 1.09 1.07 1.10 1.06 1.05 1.05 1.03 1.02 1.00 0.97 0.93 0.90 0.86 0.82 0.76 0.71 0.69 0.67 0.65 0.60 0.56
1.31 1.35 1.36 1.40 1.33 1.32 1.33 1.26 1.20 1.18 1.08 1.00 1.02 1.07 1.07 1.10 1.11 1.06 1.04 1.08 1.03 1.02 1.01 0.98 0.96 0.92 0.89 0.84 0.81 0.79 0.72 0.66 0.67 0.63 0.57 0.56 0.56 0.53
1.27 1.30 1.34 1.34 1.29 1.30 1.33 1.29 1.23 1.19 1.14 1.06 1.02 1.05 1.05 1.05 1.00 1.00 0.99 1.01 1.02 1.00 0.96 0.92 0.89 0.86 0.82 0.78 0.73 0.70 0.65 0.62 0.57 0.55 0.53 0.50 0.48 0.44
1.23 1.25 1.30 1.32 1.28 1.29 1.28 1.28 1.22 1.11 1.11 1.07 0.99 1.02 1.00 0.97 0.95 0.92 0.92 0.96 0.94 0.94 0.92 0.88 0.85 0.81 0.77 0.74 0.69 0.61 0.57 0.55 0.56 0.52 0.47 0.43 0.38 0.34
1.19 1.23 1.24 1.30 1.35 1.36 1.29 1.22 1.23 1.12 1.03 1.01 0.96 0.98 0.94 0.91 0.88 0.90 0.91 0.90 0.88 0.88 0.84 0.81 0.79 0.76 0.73 0.66 0.62 0.60 0.57 0.53 0.49 0.43 0.40 0.34 0.33 0.31
1.11 1.18 1.22 1.26 1.31 1.36 1.31 1.30 1.25 1.13 1.05 0.99 0.95 0.97 0.94 0.94 0.93 0.93 0.88 0.84 0.80 0.84 0.79 0.74 0.71 0.64 0.61 0.60 0.57 0.54 0.51 0.46 0.40 0.35 0.34 0.33 0.30 0.28
1.11 1.11 1.13 1.28 1.29 1.30 1.28 1.24 1.23 1.17 1.11 1.07 0.99 0.99 0.96 0.96 0.91 0.87 0.88 0.86 0.82 0.78 0.75 0.64 0.63 0.58 0.57 0.59 0.54 0.47 0.42 0.38 0.35 0.34 0.31 0.28 0.25 0.26
1.10 1.14 1.18 1.19 1.23 1.25 1.19 1.14 1.15 1.11 1.08 1.11 1.09 1.05 1.02 0.99 0.97 0.94 0.89 0.82 0.75 0.71 0.71 0.63 0.62 0.60 0.56 0.52 0.44 0.41 0.37 0.34 0.32 0.30 0.27 0.26 0.26 0.26
1.04 1.08 1.14 1.14 1.18 1.23 1.15 1.09 1.06 1.04 1.08 1.09 1.08 1.04 1.02 1.00 0.96 0.91 0.81 0.77 0.72 0.68 0.66 0.64 0.59 0.52 0.46 0.41 0.37 0.34 0.33 0.31 0.29 0.28 0.27 0.25 0.25 0.25
0.89 0.99 1.08 1.08 1.10 1.16 1.13 1.06 1.02 0.98 1.00 1.01 0.98 0.97 0.94 0.92 0.89 0.84 0.81 0.75 0.70 0.62 0.61 0.57 0.47 0.41 0.35 0.34 0.32 0.30 0.29 0.28 0.28 0.27 0.24 0.24 0.25 0.23
0.80 0.83 0.94 1.01 1.03 1.05 1.06 1.04 1.00 0.99 0.95 0.94 0.91 0.88 0.85 0.84 0.81 0.80 0.79 0.72 0.62 0.54 0.48 0.44 0.38 0.34 0.30 0.26 0.27 0.27 0.27 0.26 0.26 0.25 0.23 0.23 0.23 0.23
0.77 0.76 0.82 0.88 0.93 0.97 0.97 0.96 0.94 0.92 0.89 0.85 0.82 0.79 0.76 0.73 0.70 0.65 0.60 0.55 0.50 0.44 0.41 0.38 0.30 0.27 0.25 0.23 0.22 0.24 0.24 0.25 0.24 0.21 0.20 0.20 0.20 0.21
0.77 0.76 0.75 0.74 0.77 0.85 0.88 0.87 0.85 0.81 0.78 0.73 0.70 0.67 0.64 0.59 0.56 0.54 0.52 0.46 0.42 0.38 0.34 0.29 0.26 0.25 0.24 0.22 0.20 0.21 0.20 0.21 0.22 0.19 0.18 0.18 0.18 0.19
0.75 0.74 0.72 0.71 0.73 0.72 0.68 0.66 0.66 0.67 0.66 0.64 0.64 0.63 0.61 0.56 0.52 0.49 0.45 0.41 0.34 0.31 0.28 0.26 0.25 0.24 0.22 0.22 0.20 0.19 0.20 0.17 0.19 0.18 0.18 0.18 0.18 0.19
0.74 0.72 0.71 0.69 0.67 0.64 0.63 0.63 0.65 0.66 0.64 0.62 0.60 0.57 0.53 0.50 0.46 0.43 0.38 0.34 0.27 0.24 0.23 0.24 0.25 0.24 0.24 0.22 0.19 0.19 0.18 0.17 0.18 0.17 0.17 0.16 0.17 0.18
0.77 0.73 0.70 0.68 0.69 0.69 0.68 0.67 0.67 0.64 0.62 0.59 0.55 0.52 0.48 0.44 0.39 0.34 0.29 0.25 0.23 0.22 0.21 0.21 0.20 0.19 0.20 0.21 0.22 0.18 0.17 0.17 0.17 0.18 0.18 0.15 0.15 0.18
0.73 0.71 0.70 0.71 0.69 0.68 0.67 0.65 0.63 0.60 0.58 0.53 0.48 0.43 0.38 0.32 0.29 0.26 0.24 0.23 0.22 0.21 0.20 0.19 0.17 0.15 0.14 0.13 0.16 0.20 0.17 0.17 0.17 0.16 0.17 0.17 0.16 0.18
0.70 0.68 0.67 0.65 0.64 0.63 0.62 0.60 0.57 0.53 0.48 0.43 0.37 0.33 0.30 0.27 0.25 0.24 0.23 0.21 0.20 0.19 0.17 0.17 0.15 0.15 0.13 0.12 0.14 0.16 0.20 0.18 0.17 0.16 0.17 0.19 0.20 0.22
0.64 0.63 0.62 0.60 0.59 0.58 0.56 0.52 0.46 0.41 0.37 0.33 0.30 0.28 0.27 0.26 0.24 0.23 0.22 0.21 0.19 0.18 0.16 0.15 0.16 0.16 0.16 0.16 0.14 0.15 0.17 0.20 0.21 0.19 0.18 0.17 0.16 0.16
0.60 0.58 0.57 0.56 0.55 0.50 0.45 0.40 0.35 0.32 0.30 0.28 0.27 0.27 0.26 0.24 0.23 0.22 0.21 0.19 0.18 0.17 0.16 0.15 0.15 0.15 0.14 0.13 0.13 0.14 0.15 0.18 0.20 0.20 0.20 0.20 0.18 0.15
0.55 0.53 0.51 0.46 0.43 0.39 0.36 0.33 0.31 0.30 0.28 0.27 0.26 0.25 0.24 0.23 0.22 0.21 0.20 0.19 0.17 0.15 0.14 0.13 0.13 0.13 0.13 0.13 0.13 0.13 0.14 0.17 0.17 0.16 0.18 0.22 0.25 0.25
Wind_Speed
33 35 41 42 38 37 35 35 33 30 31 29 26 26 25 25 25 23 22 21 21 20 22 21 21 23 25 25 25 26 25 26 26 27 28 30 32 33
28 37 38 41 41 37 37 35 34 33 31 29 28 28 27 26 25 25 24 23 23 22 21 21 23 24 25 24 25 26 26 26 26 28 30 32 34 35
23 33 38 40 43 38 39 38 35 34 32 28 29 27 27 27 26 25 24 24 22 23 24 25 25 25 26 26 26 25 24 26 28 30 32 35 36 37
20 27 37 38 42 44 38 40 37 35 33 29 29 28 28 27 26 25 25 24 25 25 24 26 27 26 23 23 23 24 26 28 30 32 33 35 38 40
20 20 32 38 41 42 36 39 38 35 34 32 29 29 28 28 26 26 26 25 25 25 26 26 25 23 23 23 24 25 28 30 31 33 36 37 39 41
22 22 23 33 41 41 42 34 36 35 33 32 30 28 27 26 27 26 26 26 26 27 26 24 23 23 23 24 26 28 30 31 33 36 37 39 41 42
23 25 25 26 35 43 43 38 34 34 33 31 30 29 28 28 27 27 25 26 27 25 24 24 24 25 26 27 28 30 31 33 35 37 38 39 40 41
25 26 27 31 33 39 44 42 40 36 33 31 31 30 27 26 27 27 28 27 25 25 24 23 24 25 26 28 30 31 33 35 36 37 37 38 39 40
23 25 27 32 33 37 39 39 37 39 38 36 34 32 29 30 30 29 27 26 25 23 23 23 25 26 28 30 31 32 34 35 36 37 37 38 38 38
21 23 26 31 34 35 37 35 34 34 34 34 33 31 31 31 30 28 25 23 21 21 24 25 26 28 29 30 31 32 34 34 36 36 37 37 38 38
17 19 21 26 32 36 35 30 31 30 29 31 29 27 25 24 25 24 22 21 22 23 24 25 27 28 29 30 31 32 33 34 34 35 36 37 37 38
13 11 14 22 27 32 35 32 30 30 27 28 27 25 24 22 21 22 22 21 22 24 25 26 27 28 29 30 31 31 32 33 34 34 36 36 37 39
12 10 9 13 20 24 27 30 28 29 27 25 22 22 21 20 19 20 21 22 23 24 25 26 27 27 28 29 30 31 32 33 33 34 36 37 38 40
14 12 11 12 14 17 19 21 20 21 21 21 20 18 18 18 19 19 19 20 22 22 23 24 25 27 28 29 30 31 32 32 33 35 36 38 39 40
15 14 14 14 15 15 17 18 19 18 18 18 18 17 17 17 17 18 19 19 20 20 22 23 24 26 27 29 30 31 32 33 34 36 37 38 40 41
18 16 15 15 15 16 17 17 17 18 18 17 17 17 17 17 18 18 18 19 20 21 22 24 26 27 28 29 30 31 32 33 35 37 37 39 40 41
21 19 18 17 16 16 16 17 18 18 17 17 18 18 17 18 17 18 18 19 20 21 23 25 26 27 29 30 30 32 33 34 35 36 37 38 39 40
23 21 20 19 18 18 18 18 18 18 18 18 18 18 17 16 16 17 18 19 20 21 23 24 26 27 28 29 30 32 33 34 35 36 37 38 38 38
23 23 22 21 19 18 19 18 18 18 18 17 17 16 16 15 16 17 17 19 20 21 22 25 26 27 29 31 32 32 33 35 36 36 36 37 37 38
22 21 22 21 20 19 19 18 17 17 17 17 16 16 16 16 16 17 18 20 21 22 24 25 27 29 30 31 32 34 35 35 35 36 36 36 36 36
22 21 20 19 18 18 18 18 17 17 17 16 16 16 16 17 17 18 19 20 22 24 25 27 28 30 31 31 32 34 35 35 35 35 35 35 33 32
21 22 20 19 18 18 17 17 17 17 17 16 16 17 17 18 18 19 20 21 23 24 26 28 29 30 31 32 33 34 34 35 35 35 33 32 30 29
18 20 19 18 17 17 16 16 16 16 17 17 17 17 17 18 19 20 21 22 23 26 28 28 29 31 32 32 33 34 34 33 33 33 30 29 29 29
Wind_Direction
246 236 221 224 221 219 220 219 219 219 219 222 225 225 226 229 233 235 240 247 255 260 270 267 275 283 286 284 284 289 289 290 292 294 298 300 301 301
253 227 225 219 218 220 219 219 220 219 220 225 228 227 228 231 235 238 243 252 257 264 265 269 277 285 287 284 286 287 289 291 293 294 298 300 302 303
252 227 221 219 219 221 221 219 220 220 222 226 226 227 230 235 237 240 246 252 259 262 266 275 277 285 287 285 287 285 289 292 295 297 299 302 303 304
248 231 221 220 223 218 220 220 218 220 221 225 227 233 234 235 237 243 247 251 261 265 268 276 277 282 282 286 287 287 291 294 297 299 302 303 304 305
244 234 223 225 215 215 217 219 218 221 224 228 234 237 234 235 240 246 249 255 260 266 271 277 276 278 281 285 288 290 293 296 298 301 303 304 305 305
239 234 228 225 219 219 215 216 218 222 224 228 235 234 232 237 243 248 251 256 262 269 272 271 272 276 280 285 290 293 295 298 300 303 303 304 305 307
242 236 236 231 222 218 216 217 224 223 226 231 231 233 237 241 243 249 252 257 267 267 267 268 272 276 281 285 291 294 296 300 302 303 304 306 306 308
244 241 242 236 229 217 221 224 225 225 228 231 232 229 238 241 244 249 256 260 262 263 266 268 274 279 283 288 292 296 299 301 303 304 306 307 308 309
247 245 251 233 225 218 218 220 229 228 234 232 231 237 243 247 251 255 253 255 261 258 263 271 277 282 287 290 293 297 300 301 303 305 307 307 308 309
251 251 250 230 221 217 216 220 225 227 230 233 234 243 249 252 251 246 246 249 254 261 266 275 278 284 289 290 294 298 301 302 304 306 306 307 308 309
250 254 241 225 216 213 214 222 219 221 230 227 235 240 247 241 238 236 240 248 260 266 271 277 281 286 289 292 295 299 301 303 305 305 307 308 309 309
244 249 230 220 214 215 216 218 219 220 226 230 237 236 233 234 235 239 246 254 262 270 273 279 283 287 291 292 295 299 302 304 305 306 309 309 310 311
226 221 214 200 205 209 211 217 225 223 227 228 224 223 223 230 238 245 252 261 267 275 276 281 284 288 292 293 295 299 302 304 305 308 309 309 310 312
213 210 202 189 186 188 191 195 203 207 209 207 211 218 225 233 243 252 259 266 272 275 279 281 286 290 292 295 296 298 302 304 306 308 310 311 311 312
206 199 191 188 185 183 185 191 196 201 204 209 215 223 232 241 248 256 265 269 274 278 283 287 290 293 295 296 297 300 302 304 306 309 310 311 312 314
197 201 198 193 190 193 197 201 206 210 213 217 223 231 236 248 257 262 266 271 277 282 286 289 292 294 296 298 300 302 304 305 307 309 310 311 313 315
205 206 205 204 204 206 207 210 213 215 220 227 231 236 244 253 260 264 269 276 282 284 288 292 295 297 298 299 301 303 304 306 308 310 311 312 314 316
213 213 215 216 214 217 217 218 222 225 228 234 237 241 246 253 260 267 272 278 283 288 293 296 299 300 300 303 304 304 306 307 309 310 312 313 314 317
214 216 218 217 216 220 219 220 224 228 231 233 234 240 246 255 263 271 276 281 288 292 296 299 303 304 303 303 303 305 307 308 309 310 311 313 313 316
214 212 214 219 221 218 219 221 224 227 229 230 234 242 252 260 269 275 279 285 290 294 297 302 304 305 304 304 304 306 307 307 309 309 310 312 313 314
212 211 213 213 216 219 221 221 220 223 228 233 241 249 258 265 272 277 282 288 292 295 299 303 304 305 305 306 307 307 308 309 308 308 310 311 312 314
211 213 213 217 219 218 216 217 221 227 234 240 248 256 263 268 274 280 285 289 294 298 301 303 304 306 307 307 307 308 308 309 310 310 309 309 310 313
205 202 206 208 207 209 215 222 227 233 238 244 251 259 267 274 278 282 289 294 297 299 301 303 305 307 308 308 309 310 310 310 310 311 309 311 312 314